When you browse on this site, cookies collect data to enhance your experience and personalize the content and advertising you see.
Visit our Privacy Policy to learn more. By continuing to use the site, you agree to this use of cookies and data.
  • En España
  • Lista de países
  • Para 7 días
  • Temperatura del agua
  • Mapa Satelital
  • El tiempo en el mapa
  • Informadores
  • user-avatar
    Iniciar sesión

    Tiempo cada hora Madrid

    Hoy, 14 Diciembre, Viernes

    Tiempo Temperatura Precipitaciones Viento Presión Humedad
    00:00 +3°C° 0 mm 4 mps 706 mmHg 74%
    01:00 +3°C° 0 mm 3 mps 706 mmHg 76%
    02:00 +3°C° 0 mm 3 mps 706 mmHg 77%
    03:00 +2°C° 0 mm 3 mps 707 mmHg 78%
    04:00 +2°C° 0 mm 3 mps 707 mmHg 79%
    05:00 +2°C° 0 mm 3 mps 708 mmHg 80%
    06:00 +2°C° 0 mm 3 mps 708 mmHg 81%
    07:00 +3°C° 0 mm 3 mps 709 mmHg 78%
    08:00 +3°C° 0 mm 3 mps 709 mmHg 76%
    09:00 +4°C° 0 mm 3 mps 709 mmHg 74%
    10:00 +5°C° 0 mm 3 mps 710 mmHg 68%
    11:00 +6°C° 0 mm 4 mps 710 mmHg 62%
    12:00 +8°C° 0 mm 4 mps 710 mmHg 57%
    13:00 +8°C° 0 mm 4 mps 710 mmHg 55%
    14:00 +8°C° 0 mm 4 mps 710 mmHg 54%
    15:00 +10°C° 0 mm 4 mps 710 mmHg 53%
    16:00 +8°C° 0 mm 3 mps 711 mmHg 58%
    17:00 +7°C° 0 mm 3 mps 711 mmHg 63%
    18:00 +6°C° 0 mm 2 mps 711 mmHg 69%
    19:00 +6°C° 0 mm 2 mps 711 mmHg 70%
    20:00 +5°C° 0 mm 2 mps 712 mmHg 71%
    21:00 +6°C° 0 mm 1 mps 712 mmHg 72%
    22:00 +6°C° 0 mm 1 mps 712 mmHg 72%
    23:00 +6°C° 0 mm 1 mps 712 mmHg 73%

    Mañana, 15 Diciembre, Sábado

    Tiempo Temperatura Precipitaciones Viento Presión Humedad
    00:00 +6°C° 0 mm 1 mps 712 mmHg 74%
    01:00 +6°C° 0 mm 1 mps 712 mmHg 75%
    02:00 +6°C° 0 mm 1 mps 712 mmHg 76%
    03:00 +6°C° 0 mm 1 mps 712 mmHg 77%
    04:00 +6°C° 0 mm 1 mps 712 mmHg 79%
    05:00 +6°C° 0 mm 1 mps 712 mmHg 81%
    06:00 +6°C° 0 mm 1 mps 712 mmHg 82%
    07:00 +6°C° 0 mm 1 mps 712 mmHg 82%
    08:00 +6°C° 0 mm 2 mps 712 mmHg 81%
    09:00 +7°C° 0 mm 2 mps 713 mmHg 80%
    10:00 +8°C° 0 mm 2 mps 712 mmHg 76%
    11:00 +10°C° 0 mm 3 mps 712 mmHg 73%
    12:00 +11°C° 0 mm 3 mps 712 mmHg 70%
    13:00 +12°C° 0 mm 3 mps 712 mmHg 70%
    14:00 +12°C° 0 mm 3 mps 711 mmHg 70%
    15:00 +13°C° 0 mm 4 mps 711 mmHg 70%
    16:00 +11°C° 0 mm 3 mps 711 mmHg 76%
    17:00 +10°C° 0 mm 3 mps 711 mmHg 82%
    18:00 +9°C° 0 mm 3 mps 711 mmHg 88%
    19:00 +9°C° 0 mm 3 mps 711 mmHg 89%
    20:00 +9°C° 0 mm 3 mps 711 mmHg 90%
    21:00 +8°C° 0 mm 3 mps 711 mmHg 91%
    22:00 +8°C° 0 mm 3 mps 710 mmHg 91%
    23:00 +8°C° 0 mm 3 mps 710 mmHg 92%

    Pasado mañana, 16 Diciembre, Domingo

    Tiempo Temperatura Precipitaciones Viento Presión Humedad
    00:00 +7°C° 0 mm 3 mps 710 mmHg 92%
    01:00 +8°C° 0.1 mm 3 mps 709 mmHg 93%
    02:00 +8°C° 0.1 mm 3 mps 709 mmHg 93%
    03:00 +8°C° 0.1 mm 3 mps 709 mmHg 93%
    04:00 +8°C° 0.3 mm 3 mps 708 mmHg 92%
    05:00 +8°C° 0.3 mm 3 mps 708 mmHg 92%
    06:00 +8°C° 0.3 mm 3 mps 708 mmHg 91%
    07:00 +8°C° 0.8 mm 3 mps 708 mmHg 90%
    08:00 +7°C° 0.8 mm 4 mps 708 mmHg 89%
    09:00 +8°C° 0.8 mm 4 mps 708 mmHg 87%
    10:00 +8°C° 0.9 mm 5 mps 708 mmHg 86%
    11:00 +9°C° 0.9 mm 5 mps 708 mmHg 85%
    12:00 +9°C° 0.9 mm 6 mps 708 mmHg 84%
    13:00 +9°C° 0.1 mm 6 mps 708 mmHg 81%
    14:00 +10°C° 0.1 mm 6 mps 708 mmHg 77%
    15:00 +10°C° 0.1 mm 6 mps 708 mmHg 73%
    16:00 +9°C° 0 mm 5 mps 708 mmHg 76%
    17:00 +8°C° 0 mm 5 mps 709 mmHg 80%
    18:00 +7°C° 0 mm 4 mps 709 mmHg 83%
    19:00 +8°C° 0 mm 3 mps 710 mmHg 84%
    20:00 +7°C° 0 mm 3 mps 711 mmHg 85%
    21:00 +7°C° 0 mm 2 mps 711 mmHg 86%
    22:00 +6°C° 0 mm 2 mps 711 mmHg 86%
    23:00 +6°C° 0 mm 2 mps 712 mmHg 86%

    17 Diciembre, Lunes

    Tiempo Temperatura Precipitaciones Viento Presión Humedad
    00:00 +5°C° 0 mm 2 mps 712 mmHg 86%
    01:00 +5°C° 0 mm 2 mps 712 mmHg 86%
    02:00 +5°C° 0 mm 2 mps 712 mmHg 86%
    03:00 +4°C° 0 mm 2 mps 712 mmHg 87%
    04:00 +5°C° 0 mm 1 mps 712 mmHg 86%
    05:00 +4°C° 0 mm 1 mps 712 mmHg 85%
    06:00 +4°C° 0 mm 1 mps 712 mmHg 84%
    07:00 +5°C° 0 mm 1 mps 713 mmHg 81%
    08:00 +5°C° 0 mm 1 mps 713 mmHg 78%
    09:00 +6°C° 0 mm 1 mps 714 mmHg 74%
    10:00 +7°C° 0 mm 1 mps 714 mmHg 67%
    11:00 +8°C° 0 mm 1 mps 714 mmHg 60%
    12:00 +9°C° 0 mm 1 mps 714 mmHg 54%
    13:00 +10°C° 0 mm 1 mps 713 mmHg 52%
    14:00 +10°C° 0 mm 1 mps 713 mmHg 50%
    15:00 +10°C° 0 mm 1 mps 712 mmHg 48%
    16:00 +9°C° 0 mm 1 mps 712 mmHg 53%
    17:00 +8°C° 0 mm 1 mps 713 mmHg 58%
    18:00 +7°C° 0 mm 1 mps 713 mmHg 63%
    19:00 +7°C° 0 mm 1 mps 713 mmHg 64%
    20:00 +6°C° 0 mm 1 mps 713 mmHg 64%
    21:00 +6°C° 0 mm 1 mps 713 mmHg 65%
    22:00 +6°C° 0 mm 1 mps 713 mmHg 65%
    23:00 +6°C° 0 mm 1 mps 712 mmHg 66%

    18 Diciembre, Martes

    Tiempo Temperatura Precipitaciones Viento Presión Humedad
    00:00 +5°C° 0 mm 1 mps 712 mmHg 66%
    01:00 +5°C° 0 mm 1 mps 712 mmHg 67%
    02:00 +5°C° 0 mm 1 mps 711 mmHg 67%
    03:00 +5°C° 0 mm 1 mps 711 mmHg 68%
    04:00 +4°C° 0 mm 2 mps 711 mmHg 69%
    05:00 +4°C° 0 mm 2 mps 710 mmHg 71%
    06:00 +4°C° 0 mm 2 mps 710 mmHg 73%
    07:00 +4°C° 0 mm 2 mps 710 mmHg 71%
    08:00 +5°C° 0 mm 2 mps 710 mmHg 70%
    09:00 +5°C° 0 mm 2 mps 710 mmHg 68%
    10:00 +7°C° 0 mm 2 mps 710 mmHg 64%
    11:00 +8°C° 0 mm 3 mps 710 mmHg 61%
    12:00 +8°C° 0 mm 4 mps 709 mmHg 57%
    13:00 +8°C° 0.1 mm 4 mps 709 mmHg 57%
    14:00 +8°C° 0.1 mm 4 mps 708 mmHg 57%
    15:00 +8°C° 0.1 mm 4 mps 708 mmHg 57%
    16:00 +9°C° 0.3 mm 3 mps 708 mmHg 62%
    17:00 +8°C° 0.3 mm 2 mps 708 mmHg 66%
    18:00 +8°C° 0.3 mm 2 mps 708 mmHg 71%
    19:00 +8°C° 0.5 mm 2 mps 708 mmHg 74%
    20:00 +8°C° 0.5 mm 2 mps 708 mmHg 78%
    21:00 +8°C° 0.5 mm 2 mps 708 mmHg 81%
    22:00 +8°C° 0.7 mm 2 mps 708 mmHg 84%
    23:00 +8°C° 0.7 mm 3 mps 708 mmHg 87%

    19 Diciembre, Miércoles

    Tiempo Temperatura Precipitaciones Viento Presión Humedad
    00:00 +9°C° 0.7 mm 3 mps 708 mmHg 89%
    01:00 +9°C° 0.8 mm 3 mps 708 mmHg 90%
    02:00 +9°C° 0.8 mm 3 mps 707 mmHg 91%
    03:00 +8°C° 0.8 mm 4 mps 707 mmHg 92%
    04:00 +8°C° 0.9 mm 4 mps 707 mmHg 92%
    05:00 +8°C° 0.9 mm 4 mps 707 mmHg 92%
    06:00 +10°C° 0.9 mm 4 mps 707 mmHg 92%
    07:00 +10°C° 0.5 mm 4 mps 708 mmHg 91%
    08:00 +8°C° 0.5 mm 4 mps 708 mmHg 89%
    09:00 +9°C° 0.5 mm 3 mps 709 mmHg 88%
    10:00 +10°C° 0 mm 3 mps 709 mmHg 78%
    11:00 +11°C° 0 mm 3 mps 709 mmHg 67%
    12:00 +11°C° 0 mm 3 mps 709 mmHg 57%
    13:00 +11°C° 0 mm 4 mps 709 mmHg 53%
    14:00 +11°C° 0 mm 4 mps 709 mmHg 50%
    15:00 +11°C° 0 mm 4 mps 709 mmHg 47%
    16:00 +10°C° 0 mm 3 mps 709 mmHg 52%
    17:00 +9°C° 0 mm 3 mps 709 mmHg 58%
    18:00 +8°C° 0 mm 2 mps 709 mmHg 64%
    19:00 +7°C° 0 mm 2 mps 710 mmHg 66%
    20:00 +8°C° 0 mm 1 mps 710 mmHg 69%
    21:00 +7°C° 0 mm 1 mps 711 mmHg 72%
    22:00 +7°C° 0 mm 1 mps 711 mmHg 73%
    23:00 +7°C° 0 mm 1 mps 711 mmHg 73%
    Mostrar más